This is the latest recevied weather packets stored in our database for station/object WASS. If no packets are shown the sender has not sent any weather packets the latest 10 day(s).
| Time | Temp. | Humidity | Pressure | Rain* | Wind** | Luminosity | Snow |
|---|---|---|---|---|---|---|---|
| 1788201092 | 23.89° C | 99% | 1 hPa | 0 mm | - | - | - |
| 1788199133 | 23.89° C | 99% | 1 hPa | 0 mm | - | - | - |
| 1788197145 | 25° C | 94% | 1 hPa | 0 mm | - | - | - |
| 1788195101 | 25° C | 99% | 1 hPa | 0 mm | - | - | - |
| 1788192872 | 25° C | 99% | 1 hPa | 0 mm | - | - | - |
| 1788190839 | 25° C | 99% | 1 hPa | 0 mm | - | - | - |
| 1788188583 | 25° C | 99% | 1 hPa | 0 mm | - | - | - |
| 1788186331 | 25° C | 99% | 1 hPa | 0 mm | - | - | - |
| 1788179146 | 26.11° C | 94% | 1 hPa | 0 mm | - | - | - |
| 1788177152 | 26.11° C | 94% | 1 hPa | 0 mm | - | - | - |
| 1788172924 | 27.22° C | 89% | 1 hPa | 0 mm | - | - | - |
| 1788170902 | 27.78° C | 84% | 1 hPa | 0 mm | - | - | - |
| 1788168748 | 27.78° C | 84% | 1 hPa | 0 mm | - | - | - |
| 1788166552 | 28.89° C | 79% | 1 hPa | 0 mm | - | - | - |
| 1788164416 | 30° C | 75% | 1 hPa | 0 mm | - | - | - |
| 1788144928 | 27.22° C | 84% | 1 hPa | 0 mm | - | - | - |
| 1788142862 | 27.22° C | 84% | 1 hPa | 0 mm | - | - | - |
| 1788138823 | 27.22° C | 84% | 1 hPa | 0 mm | - | - | - |
| 1788136834 | 27.22° C | 84% | 1 hPa | 0 mm | - | - | - |
| 1788134873 | 27.22° C | 84% | 1 hPa | 0 mm | - | - | - |
| 1788132729 | 25° C | 99% | 1 hPa | 0 mm | - | - | - |
| 1788130648 | 23.89° C | 99% | 1 hPa | 0 mm | - | - | - |
| 1788128721 | 23.89° C | 99% | 1 hPa | 0 mm | - | - | - |
| 1788124049 | 23.89° C | 99% | 1 hPa | 0 mm | - | - | - |
| 1788121819 | 23.89° C | 99% | 1 hPa | 0 mm | - | - | - |
* Rain latest hour (hover to see other rain measurements)
** Current wind speed in m/s (hover to see current wind gust speed)